Weather History for MRLB - September, 2012

Change the Weather History Date:

Saturday, September 29, 2012

  Actual Average Record
Temperature  
Mean Temperature 80 °F -  
Max Temperature 90 °F 84 °F 91 °F (2006)
Min Temperature 71 °F 73 °F 69 °F (2000)
Cooling Degree Days 16    
Growing Degree Days 30 (Base 50)    
Moisture  
Dew Point 74 °F    
Average Humidity 86    
Maximum Humidity 100    
Minimum Humidity 57    
Precipitation  
Precipitation 0.00 in - - ()
Sea Level Pressure  
Sea Level Pressure 29.86 in    
Wind  
Wind Speed 2 mph ()    
Max Wind Speed 10 mph    
Max Gust Speed -    
Visibility 7.5 miles    
Events Fog , Rain , Thunderstorm    
Averages and records for this station are not official NWS values.
T = Trace of Precipitation, MM = Missing Value Source: Averaged Metar Reports

Daily Weather History Graph

Daily Weather History Graph

Search for Another Location

Airport or City:

Trip Planner

Search our weather history database for the weather conditions in past years. The results will help you decide how hot, cold, wet, or windy it might be!

Date:

Astronomy

Sep. 29, 2012 Rise Set
Actual Time 5:30 AM CST 5:33 PM CST
Civil Twilight 5:09 AM CST 5:54 PM CST
Nautical Twilight 4:45 AM CST 6:18 PM CST
Astronomical Twilight 4:21 AM CST 6:43 PM CST
Moon 5:14 PM CST (9/29) 4:58 AM CST (9/29)
Length of Visible Light 12h 44m
Length of Day
12h 02m
Full, 100% of the Moon is Illuminated
Sep 29
Full
Sep 29
Full
Oct 8
Last Quarter
Oct 15
New
Oct 21
First Quarter

Hourly Weather History & Observations

Time (CST) Temp. Heat Index Dew Point Humidity Pressure Visibility Wind Dir Wind Speed Gust Speed Precip Events Conditions
6:00 AM 73 °F - 72 °F 95% 29.89 in 11 mi Calm Calm - -   Overcast
6:00 AM 73.4 °F - 71.6 °F 94% 29.88 in 6.2 mi Calm Calm - N/A Fog Overcast
7:00 AM 73.4 °F - 73.4 °F 100% 29.90 in 6.2 mi Calm Calm - N/A Fog Mostly Cloudy
8:00 AM 80.6 °F 86.2 °F 75.2 °F 84% 29.92 in 6.2 mi Calm Calm - N/A   Mostly Cloudy
9:00 AM 78 °F - 75 °F 88% 29.94 in 12 mi WNW 2.3 mph - -   Overcast
9:00 AM 78.8 °F - 75.2 °F 89% 29.92 in 6.2 mi WNW 2.3 mph - N/A   Mostly Cloudy
10:00 AM 80.6 °F 86.2 °F 75.2 °F 84% 29.92 in 6.2 mi SSW 3.5 mph - N/A   Mostly Cloudy
11:00 AM 84.2 °F 92.3 °F 75.2 °F 74% 29.89 in 6.2 mi SW 4.6 mph - N/A   Mostly Cloudy
12:00 PM 86 °F - 73 °F 57% 29.87 in 9 mi SW 3.5 mph - -   Overcast
12:00 PM 86.0 °F 93.4 °F 73.4 °F 66% 29.86 in 6.2 mi SW 3.5 mph - N/A   Scattered Clouds
12:20 PM 84.2 °F 92.3 °F 75.2 °F 74% 29.84 in - East 5.8 mph - N/A Rain Rain
1:00 PM 77.0 °F - 75.2 °F 94% 29.83 in 6.2 mi SSW 8.1 mph - N/A Rain , Thunderstorm Rain
2:00 PM 78.8 °F - 75.2 °F 89% 29.80 in 6.2 mi NW 4.6 mph - N/A   Mostly Cloudy
3:00 PM 79 °F - 75 °F 84% 29.83 in 12 mi ENE 10.4 mph - -   Overcast
3:00 PM 78.8 °F - 75.2 °F 89% 29.81 in 6.2 mi South 10.4 mph - N/A   Mostly Cloudy
4:00 PM 77.0 °F - 73.4 °F 89% 29.80 in 6.2 mi South 4.6 mph - N/A   Drizzle
5:00 PM 77.0 °F - 73.4 °F 89% 29.81 in 6.2 mi Calm Calm - N/A   Mostly Cloudy
6:00 PM 76 °F - 74 °F 90% 29.85 in 12 mi East 3.5 mph - -   Scattered Clouds
6:00 PM 75.2 °F - 73.4 °F 94% 29.83 in 6.2 mi East 3.5 mph - N/A   Scattered Clouds
7:00 PM 75.2 °F - 71.6 °F 89% 29.85 in 6.2 mi East 3.5 mph - N/A   Scattered Clouds
8:00 PM 75.2 °F - 73.4 °F 94% 29.88 in 6.2 mi ESE 3.5 mph - N/A   Mostly Cloudy